EW9945 Weather Reports


time (UTC)temp
C
wind
direction
speed
KPH
gust
KPH
rain 1hr
cm
rain 24hr
cm
rain mn
cm
humidity
%
barometer
mb
20260505014607 17 117 0.0 6.4 0.00 0.00 0.00 46 1006.4
20260505013056 17 123 0.0 6.4 0.00 0.00 0.00 46 1006.3
20260505011556 18 148 0.0 12.9 0.00 0.00 0.00 45 1006.2
20260505004554 18 31 0.0 8.0 0.00 0.00 0.00 43 1005.8
20260505003059 18 181 0.0 3.2 0.00 0.00 0.00 41 1005.7
20260505001557 19 197 0.0 8.0 0.00 0.00 0.00 38 1005.7
20260505000056 20 235 0.0 11.3 0.00 0.00 0.00 36 1005.5
20260504234550 20 170 0.0 6.4 0.00 0.00 0.00 35 1005.5
20260504233049 20 208 1.6 11.3 0.00 0.00 0.00 35 1005.2
20260504231548 20 61 1.6 14.5 0.00 0.00 0.00 34 1005.2
20260504230050 21 134 0.0 16.1 0.00 0.00 0.00 33 1005.2
20260504224552 21 126 0.0 22.5 0.00 0.00 0.00 31 1005.0
20260504223102 21 130 3.2 27.4 0.00 0.00 0.00 30 1004.9
20260504221551 21 128 1.6 25.7 0.00 0.00 0.00 30 1005.0
20260504220048 21 127 0.0 17.7 0.00 0.00 0.00 29 1004.9
20260504214548 21 201 0.0 17.7 0.00 0.00 0.00 29 1004.9
20260504213047 22 129 1.6 12.9 0.00 0.00 0.00 30 1004.9
20260504211624 21 134 1.6 19.3 0.00 0.00 0.00 31 1005.0
20260504210050 22 169 0.0 11.3 0.00 0.00 0.00 29 1004.9
20260504204545 22 222 4.8 22.5 0.00 0.00 0.00 28 1005.2
20260504203044 22 223 1.6 12.9 0.00 0.00 0.00 26 1005.2
20260504201541 22 342 4.8 19.3 0.00 0.00 0.00 27 1005.4
20260504200042 22 328 0.0 30.6 0.00 0.00 0.00 28 1005.7
20260504194547 22 265 4.8 20.9 0.00 0.00 0.00 28 1006.0
20260504193037 22 299 11.3 29.0 0.00 0.00 0.00 27 1006.3
20260504191536 21 271 4.8 22.5 0.00 0.00 0.00 30 1006.5
20260504190030 21 282 8.0 22.5 0.00 0.00 0.00 32 1006.6
20260504184542 21 101 1.6 24.1 0.00 0.00 0.00 33 1007.1
20260504183027 21 333 3.2 22.5 0.00 0.00 0.00 31 1007.0
20260504181524 21 329 1.6 24.1 0.00 0.00 0.00 33 1007.3
20260504180025 20 269 3.2 29.0 0.00 0.00 0.00 35 1007.5
20260504174519 19 284 3.2 20.9 0.00 0.00 0.00 39 1007.6
20260504173017 18 264 1.6 14.5 0.00 0.00 0.00 40 1007.8
20260504171515 18 348 3.2 17.7 0.00 0.00 0.00 40 1008.1
20260504081503 5 165 0.0 1.6 0.00 0.00 0.00 65 1011.5
20260504050001 6 167 0.0 0.0 0.00 0.00 0.00 60 1012.1
20260504044501 6 166 0.0 0.0 0.00 0.00 0.00 60 1012.3
20260504043001 6 166 0.0 0.0 0.00 0.00 0.00 60 1012.3
20260504041601 6 166 0.0 0.0 0.00 0.00 0.00 63 1012.3
20260504040132 6 166 0.0 0.0 0.00 0.00 0.00 62 1012.1
20260504034603 6 166 0.0 0.0 0.00 0.00 0.00 63 1012.2
20260504033058 6 166 0.0 0.0 0.00 0.00 0.00 60 1012.2
20260504031621 7 166 0.0 0.0 0.00 0.00 0.00 56 1012.3
20260504030059 7 166 0.0 0.0 0.00 0.00 0.00 55 1012.2
20260504024605 7 166 0.0 0.0 0.00 0.00 0.00 54 1012.3
20260504023059 8 166 0.0 0.0 0.00 0.00 0.00 52 1012.3
20260504021559 8 166 0.0 0.0 0.00 0.00 0.00 52 1012.4
20260504020110 10 166 0.0 0.0 0.00 0.00 0.00 48 1012.3